| time (UTC) | temp F | wind direction | speed MPH | gust MPH | rain 1hr in | rain 24hr in | rain mn in | humidity % | barometer mb |
| 20260904164546 | 88 | 258 | 0.0 | 3.0 | 0.00 | 0.05 | 0.00 | 69 | 1009.1 |
| 20260904164044 | 88 | 257 | 0.0 | 3.0 | 0.00 | 0.05 | 0.00 | 70 | 1009.2 |
| 20260904163544 | 88 | 255 | 1.0 | 4.0 | 0.00 | 0.05 | 0.00 | 70 | 1009.2 |
| 20260904163042 | 88 | 255 | 1.0 | 4.0 | 0.00 | 0.05 | 0.00 | 70 | 1009.1 |
| 20260904162541 | 88 | 254 | 0.0 | 3.0 | 0.00 | 0.07 | 0.05 | 70 | 1009.1 |
| 20260904162040 | 87 | 254 | 0.0 | 5.0 | 0.00 | 0.07 | 0.05 | 71 | 1009.2 |
| 20260904161543 | 87 | 254 | 1.0 | 5.0 | 0.00 | 0.07 | 0.05 | 71 | 1009.1 |
| 20260904161040 | 87 | 231 | 0.0 | 2.0 | 0.00 | 0.07 | 0.05 | 71 | 1009.0 |
| 20260904160640 | 87 | 230 | 0.0 | 4.0 | 0.00 | 0.07 | 0.05 | 72 | 1008.9 |
| 20260904160039 | 87 | 230 | 0.0 | 4.0 | 0.00 | 0.07 | 0.05 | 72 | 1009.0 |
| 20260904155537 | 86 | 230 | 1.0 | 4.0 | 0.00 | 0.07 | 0.05 | 72 | 1009.0 |
| 20260904155036 | 86 | 230 | 0.0 | 4.0 | 0.00 | 0.07 | 0.05 | 73 | 1009.0 |
| 20260904154537 | 86 | 230 | 1.0 | 5.0 | 0.00 | 0.07 | 0.05 | 73 | 1009.0 |
| 20260904154035 | 86 | 186 | 0.0 | 5.0 | 0.00 | 0.07 | 0.05 | 73 | 1009.0 |
| 20260904153535 | 86 | 186 | 0.0 | 5.0 | 0.00 | 0.07 | 0.05 | 73 | 1008.9 |
| 20260904153045 | 85 | 188 | 0.0 | 4.0 | 0.00 | 0.07 | 0.05 | 74 | 1008.8 |
| 20260904152532 | 85 | 166 | 0.0 | 2.0 | 0.00 | 0.07 | 0.05 | 75 | 1008.8 |
| 20260904152031 | 84 | 166 | 0.0 | 1.0 | 0.00 | 0.07 | 0.05 | 76 | 1008.8 |
| 20260904151530 | 84 | 166 | 0.0 | 5.0 | 0.00 | 0.07 | 0.05 | 76 | 1008.8 |
| 20260904151034 | 84 | 166 | 2.0 | 5.0 | 0.00 | 0.07 | 0.05 | 76 | 1008.8 |
| 20260904150630 | 83 | 137 | 0.0 | 3.0 | 0.00 | 0.07 | 0.05 | 77 | 1008.8 |
| 20260904150030 | 83 | 137 | 0.0 | 3.0 | 0.00 | 0.07 | 0.05 | 78 | 1008.8 |
| 20260904145530 | 83 | 134 | 0.0 | 2.0 | 0.00 | 0.07 | 0.05 | 79 | 1008.8 |
| 20260904145030 | 82 | 132 | 0.0 | 1.0 | 0.00 | 0.07 | 0.05 | 80 | 1008.9 |
| 20260904144531 | 82 | 132 | 0.0 | 1.0 | 0.00 | 0.07 | 0.05 | 81 | 1008.8 |
| 20260904144029 | 81 | 132 | 0.0 | 0.0 | 0.00 | 0.07 | 0.05 | 82 | 1008.7 |
| 20260904143529 | 81 | 132 | 0.0 | 0.0 | 0.00 | 0.07 | 0.05 | 82 | 1008.7 |
| 20260904143029 | 81 | 132 | 0.0 | 0.0 | 0.00 | 0.07 | 0.05 | 83 | 1008.7 |
| 20260904142529 | 80 | 132 | 0.0 | 0.0 | 0.00 | 0.07 | 0.05 | 84 | 1008.7 |
| 20260904142032 | 80 | 132 | 0.0 | 0.0 | 0.00 | 0.07 | 0.05 | 85 | 1008.8 |
| 20260904141529 | 79 | 132 | 0.0 | 0.0 | 0.00 | 0.07 | 0.05 | 86 | 1008.8 |
| 20260904141028 | 79 | 132 | 0.0 | 0.0 | 0.00 | 0.07 | 0.05 | 87 | 1008.8 |
| 20260904140631 | 79 | 132 | 0.0 | 3.0 | 0.00 | 0.07 | 0.05 | 88 | 1008.7 |
| 20260904140030 | 78 | 132 | 0.0 | 3.0 | 0.00 | 0.07 | 0.05 | 89 | 1008.7 |
| 20260904135530 | 78 | 132 | 0.0 | 3.0 | 0.00 | 0.07 | 0.05 | 90 | 1008.8 |
| 20260904135031 | 78 | 130 | 0.0 | 0.0 | 0.00 | 0.07 | 0.05 | 90 | 1008.8 |
| 20260904134531 | 77 | 130 | 0.0 | 0.0 | 0.00 | 0.07 | 0.05 | 91 | 1008.9 |
| 20260904134031 | 77 | 130 | 0.0 | 0.0 | 0.00 | 0.07 | 0.05 | 92 | 1009.0 |
| 20260904133531 | 76 | 129 | 0.0 | 0.0 | 0.00 | 0.07 | 0.05 | 92 | 1009.1 |
| 20260904133030 | 76 | 126 | 0.0 | 1.0 | 0.00 | 0.07 | 0.05 | 93 | 1009.0 |
| 20260904132530 | 75 | 126 | 0.0 | 0.0 | 0.00 | 0.07 | 0.05 | 93 | 1008.9 |
| 20260904132030 | 75 | 126 | 0.0 | 0.0 | 0.00 | 0.07 | 0.05 | 93 | 1008.8 |
| 20260904131529 | 75 | 126 | 0.0 | 0.0 | 0.00 | 0.07 | 0.05 | 93 | 1008.7 |
| 20260904131029 | 75 | 126 | 0.0 | 0.0 | 0.00 | 0.07 | 0.05 | 93 | 1008.7 |
| 20260904130632 | 74 | 125 | 0.0 | 0.0 | 0.00 | 0.07 | 0.05 | 93 | 1008.5 |
| 20260904130040 | 74 | 125 | 0.0 | 0.0 | 0.00 | 0.07 | 0.05 | 93 | 1008.5 |
| 20260904125528 | 74 | 125 | 0.0 | 0.0 | 0.00 | 0.07 | 0.05 | 93 | 1008.6 |
| 20260904125028 | 73 | 125 | 0.0 | 0.0 | 0.00 | 0.07 | 0.05 | 93 | 1008.5 |
| 20260904124528 | 73 | 125 | 0.0 | 0.0 | 0.00 | 0.07 | 0.05 | 93 | 1008.4 |
| 20260904124031 | 73 | 126 | 0.0 | 0.0 | 0.00 | 0.07 | 0.05 | 93 | 1008.4 |
| 20260904123530 | 73 | 125 | 0.0 | 0.0 | 0.00 | 0.07 | 0.05 | 93 | 1008.3 |
| 20260904123027 | 73 | 126 | 0.0 | 0.0 | 0.00 | 0.07 | 0.05 | 93 | 1008.2 |
| 20260904122527 | 73 | 126 | 0.0 | 0.0 | 0.00 | 0.15 | 0.05 | 93 | 1008.3 |
| 20260904122027 | 73 | 145 | 0.0 | 0.0 | 0.00 | 0.15 | 0.05 | 93 | 1008.2 |
| 20260904121527 | 73 | 145 | 0.0 | 0.0 | 0.00 | 0.15 | 0.05 | 93 | 1008.2 |
| 20260904121026 | 73 | 146 | 0.0 | 0.0 | 0.00 | 0.15 | 0.05 | 93 | 1008.1 |
| 20260904120626 | 73 | 146 | 0.0 | 0.0 | 0.00 | 0.15 | 0.05 | 93 | 1008.2 |
| 20260904120036 | 73 | 150 | 0.0 | 0.0 | 0.00 | 0.15 | 0.05 | 93 | 1008.1 |
| 20260904115528 | 73 | 150 | 0.0 | 0.0 | 0.00 | 0.15 | 0.05 | 93 | 1008.1 |
| 20260904115028 | 73 | 150 | 0.0 | 0.0 | 0.00 | 0.15 | 0.05 | 93 | 1008.1 |
| 20260904114528 | 73 | 150 | 0.0 | 0.0 | 0.00 | 0.15 | 0.05 | 93 | 1008.1 |
| 20260904114031 | 73 | 150 | 0.0 | 0.0 | 0.00 | 0.15 | 0.05 | 93 | 1008.1 |
| 20260904113527 | 73 | 150 | 0.0 | 0.0 | 0.00 | 0.15 | 0.05 | 93 | 1007.9 |
| 20260904113032 | 73 | 150 | 0.0 | 0.0 | 0.00 | 0.15 | 0.05 | 93 | 1007.8 |
| 20260904112528 | 73 | 150 | 0.0 | 0.0 | 0.00 | 0.15 | 0.05 | 92 | 1007.9 |
| 20260904112026 | 73 | 150 | 0.0 | 0.0 | 0.00 | 0.15 | 0.05 | 93 | 1007.9 |
| 20260904111526 | 73 | 150 | 0.0 | 0.0 | 0.00 | 0.15 | 0.05 | 93 | 1007.8 |
| 20260904111029 | 73 | 150 | 0.0 | 0.0 | 0.00 | 0.15 | 0.05 | 93 | 1007.7 |
| 20260904110627 | 73 | 150 | 0.0 | 0.0 | 0.00 | 0.15 | 0.05 | 92 | 1007.9 |
| 20260904110025 | 73 | 150 | 0.0 | 0.0 | 0.00 | 0.15 | 0.05 | 92 | 1007.8 |
| 20260904105526 | 74 | 150 | 0.0 | 0.0 | 0.00 | 0.15 | 0.05 | 92 | 1007.7 |
| 20260904105026 | 74 | 150 | 0.0 | 0.0 | 0.00 | 0.15 | 0.05 | 92 | 1007.9 |
| 20260904104528 | 74 | 150 | 0.0 | 0.0 | 0.00 | 0.15 | 0.05 | 92 | 1008.0 |
| 20260904104026 | 74 | 150 | 0.0 | 0.0 | 0.00 | 0.15 | 0.05 | 92 | 1007.9 |
| 20260904103524 | 74 | 150 | 0.0 | 0.0 | 0.00 | 0.15 | 0.05 | 93 | 1007.9 |
| 20260904103025 | 74 | 150 | 0.0 | 0.0 | 0.00 | 0.15 | 0.05 | 93 | 1007.8 |
| 20260904102525 | 74 | 150 | 0.0 | 0.0 | 0.00 | 0.15 | 0.05 | 92 | 1007.8 |
| 20260904102024 | 74 | 150 | 0.0 | 0.0 | 0.00 | 0.15 | 0.05 | 92 | 1007.8 |
| 20260904101524 | 74 | 150 | 0.0 | 0.0 | 0.00 | 0.15 | 0.05 | 93 | 1007.8 |
| 20260904101024 | 74 | 150 | 0.0 | 0.0 | 0.00 | 0.15 | 0.05 | 92 | 1007.9 |
| 20260904100624 | 74 | 150 | 0.0 | 0.0 | 0.00 | 0.15 | 0.05 | 93 | 1007.9 |
| 20260904100026 | 74 | 150 | 0.0 | 0.0 | 0.00 | 0.15 | 0.05 | 93 | 1007.8 |
| 20260904095529 | 74 | 150 | 0.0 | 0.0 | 0.00 | 0.15 | 0.05 | 92 | 1007.8 |
| 20260904095025 | 74 | 150 | 0.0 | 0.0 | 0.00 | 0.15 | 0.05 | 92 | 1007.7 |
| 20260904094525 | 74 | 150 | 0.0 | 0.0 | 0.00 | 0.15 | 0.05 | 92 | 1007.7 |
| 20260904094025 | 74 | 150 | 0.0 | 0.0 | 0.00 | 0.15 | 0.05 | 92 | 1007.6 |
| 20260904093525 | 74 | 150 | 0.0 | 0.0 | 0.00 | 0.15 | 0.05 | 92 | 1007.6 |
| 20260904093027 | 74 | 120 | 0.0 | 0.0 | 0.00 | 0.15 | 0.05 | 92 | 1007.7 |
| 20260904092525 | 74 | 120 | 0.0 | 0.0 | 0.00 | 0.15 | 0.05 | 92 | 1007.6 |
| 20260904092029 | 74 | 120 | 0.0 | 0.0 | 0.00 | 0.15 | 0.05 | 93 | 1007.6 |
| 20260904091525 | 74 | 120 | 0.0 | 0.0 | 0.00 | 0.15 | 0.05 | 93 | 1007.5 |
| 20260904091025 | 74 | 120 | 0.0 | 0.0 | 0.00 | 0.15 | 0.05 | 93 | 1007.5 |
| 20260904090624 | 74 | 120 | 0.0 | 0.0 | 0.00 | 0.15 | 0.05 | 93 | 1007.5 |
| 20260904090031 | 74 | 120 | 0.0 | 0.0 | 0.00 | 0.15 | 0.05 | 92 | 1007.6 |
| 20260904085525 | 74 | 120 | 0.0 | 0.0 | 0.00 | 0.15 | 0.05 | 93 | 1007.5 |
| 20260904085027 | 74 | 120 | 0.0 | 0.0 | 0.00 | 0.15 | 0.05 | 93 | 1007.5 |
| 20260904084525 | 75 | 120 | 0.0 | 0.0 | 0.00 | 0.15 | 0.05 | 93 | 1007.4 |
| 20260904084026 | 75 | 120 | 0.0 | 0.0 | 0.00 | 0.15 | 0.05 | 93 | 1007.3 |
| 20260904083524 | 75 | 120 | 0.0 | 0.0 | 0.00 | 0.15 | 0.05 | 93 | 1007.3 |
| 20260904083032 | 75 | 120 | 0.0 | 0.0 | 0.00 | 0.15 | 0.05 | 93 | 1007.3 |
| 20260904082524 | 75 | 120 | 0.0 | 0.0 | 0.00 | 0.15 | 0.05 | 93 | 1007.2 |
| 20260904082025 | 75 | 120 | 0.0 | 0.0 | 0.00 | 0.15 | 0.05 | 93 | 1007.3 |
| 20260904081523 | 75 | 120 | 0.0 | 0.0 | 0.00 | 0.15 | 0.05 | 93 | 1007.2 |
| 20260904081023 | 75 | 120 | 0.0 | 0.0 | 0.00 | 0.15 | 0.05 | 93 | 1007.2 |
| 20260904080624 | 75 | 120 | 0.0 | 0.0 | 0.00 | 0.15 | 0.05 | 92 | 1007.3 |
| 20260904080022 | 75 | 120 | 0.0 | 0.0 | 0.00 | 0.15 | 0.05 | 92 | 1007.2 |
| 20260904075521 | 75 | 120 | 0.0 | 0.0 | 0.00 | 0.15 | 0.05 | 92 | 1007.2 |
| 20260904075022 | 75 | 120 | 0.0 | 0.0 | 0.00 | 0.15 | 0.05 | 92 | 1007.3 |
| 20260904074522 | 75 | 120 | 0.0 | 0.0 | 0.00 | 0.15 | 0.05 | 92 | 1007.2 |
| 20260904074021 | 75 | 120 | 0.0 | 0.0 | 0.00 | 0.15 | 0.05 | 92 | 1007.2 |
| 20260904073526 | 75 | 120 | 0.0 | 0.0 | 0.00 | 0.15 | 0.05 | 92 | 1007.2 |
| 20260904073022 | 75 | 120 | 0.0 | 0.0 | 0.00 | 0.15 | 0.05 | 92 | 1007.2 |
| 20260904072521 | 75 | 120 | 0.0 | 0.0 | 0.00 | 0.15 | 0.05 | 92 | 1007.3 |
| 20260904072021 | 75 | 120 | 0.0 | 0.0 | 0.00 | 0.15 | 0.05 | 92 | 1007.3 |
| 20260904071522 | 75 | 120 | 0.0 | 0.0 | 0.00 | 0.15 | 0.05 | 92 | 1007.4 |
| 20260904071023 | 75 | 120 | 0.0 | 0.0 | 0.00 | 0.15 | 0.05 | 92 | 1007.4 |
| 20260904070621 | 75 | 120 | 0.0 | 0.0 | 0.00 | 0.15 | 0.05 | 92 | 1007.4 |
| 20260904070023 | 75 | 121 | 0.0 | 0.0 | 0.00 | 0.15 | 0.05 | 92 | 1007.5 |
| 20260904065523 | 75 | 121 | 0.0 | 0.0 | 0.00 | 0.15 | 0.05 | 92 | 1007.5 |
| 20260904065023 | 75 | 121 | 0.0 | 0.0 | 0.00 | 0.15 | 0.05 | 91 | 1007.5 |
| 20260904064522 | 75 | 121 | 0.0 | 0.0 | 0.00 | 0.15 | 0.05 | 91 | 1007.5 |
| 20260904064023 | 75 | 121 | 0.0 | 0.0 | 0.00 | 0.15 | 0.05 | 91 | 1007.5 |
| 20260904063522 | 75 | 121 | 0.0 | 0.0 | 0.00 | 0.15 | 0.05 | 91 | 1007.7 |
| 20260904063022 | 75 | 121 | 0.0 | 0.0 | 0.00 | 0.15 | 0.05 | 91 | 1007.6 |
| 20260904062523 | 75 | 121 | 0.0 | 0.0 | 0.00 | 0.15 | 0.05 | 91 | 1007.6 |
| 20260904062022 | 75 | 121 | 0.0 | 0.0 | 0.00 | 0.15 | 0.05 | 91 | 1007.6 |
| 20260904061537 | 75 | 121 | 0.0 | 0.0 | 0.00 | 0.15 | 0.05 | 91 | 1007.6 |
| 20260904061022 | 75 | 121 | 0.0 | 0.0 | 0.00 | 0.15 | 0.05 | 91 | 1007.6 |
| 20260904060624 | 75 | 148 | 0.0 | 0.0 | 0.00 | 0.15 | 0.05 | 91 | 1007.5 |
| 20260904060022 | 75 | 142 | 0.0 | 0.0 | 0.00 | 0.15 | 0.05 | 91 | 1007.5 |
| 20260904055521 | 75 | 140 | 0.0 | 0.0 | 0.00 | 0.15 | 0.05 | 91 | 1007.6 |
| 20260904055020 | 75 | 140 | 0.0 | 0.0 | 0.00 | 0.15 | 0.05 | 91 | 1007.6 |
| 20260904054523 | 75 | 138 | 0.0 | 0.0 | 0.00 | 0.15 | 0.05 | 91 | 1007.6 |
| 20260904054022 | 75 | 157 | 0.0 | 0.0 | 0.00 | 0.15 | 0.05 | 90 | 1007.6 |
| 20260904053523 | 75 | 147 | 0.0 | 0.0 | 0.00 | 0.15 | 0.05 | 90 | 1007.6 |
| 20260904053021 | 75 | 150 | 0.0 | 0.0 | 0.00 | 0.15 | 0.05 | 90 | 1007.6 |
| 20260904052521 | 76 | 153 | 0.0 | 0.0 | 0.00 | 0.15 | 0.05 | 90 | 1007.5 |
| 20260904052020 | 76 | 171 | 0.0 | 0.0 | 0.00 | 0.15 | 0.05 | 90 | 1007.5 |
| 20260904051520 | 76 | 138 | 0.0 | 0.0 | 0.00 | 0.15 | 0.05 | 90 | 1007.5 |
| 20260904051022 | 76 | 126 | 0.0 | 0.0 | 0.00 | 0.15 | 0.05 | 90 | 1007.4 |
| 20260904050021 | 76 | 161 | 0.0 | 0.0 | 0.00 | 0.15 | 0.05 | 89 | 1007.4 |
| 20260904045520 | 76 | 153 | 0.0 | 0.0 | 0.00 | 0.15 | 0.05 | 89 | 1007.4 |
| 20260904045021 | 76 | 143 | 0.0 | 0.0 | 0.00 | 0.15 | 0.05 | 89 | 1007.5 |
| 20260904044535 | 76 | 149 | 0.0 | 0.0 | 0.00 | 0.15 | 0.05 | 89 | 1007.4 |
| 20260904044019 | 76 | 130 | 0.0 | 0.0 | 0.00 | 0.15 | 0.05 | 89 | 1007.5 |
| 20260904043520 | 76 | 115 | 0.0 | 0.0 | 0.00 | 0.15 | 0.05 | 89 | 1007.5 |
| 20260904043028 | 76 | 128 | 0.0 | 0.0 | 0.00 | 0.15 | 0.05 | 89 | 1007.5 |
| 20260904042519 | 76 | 113 | 0.0 | 0.0 | 0.00 | 0.15 | 0.05 | 89 | 1007.4 |
| 20260904042020 | 76 | 145 | 0.0 | 0.0 | 0.00 | 0.15 | 0.05 | 88 | 1007.4 |
| 20260904041522 | 76 | 135 | 0.0 | 0.0 | 0.00 | 0.15 | 0.05 | 88 | 1007.4 |
| 20260904041019 | 76 | 109 | 0.0 | 0.0 | 0.00 | 0.15 | 0.05 | 88 | 1007.3 |
| 20260904040620 | 77 | 128 | 0.0 | 0.0 | 0.00 | 0.15 | 0.05 | 87 | 1007.4 |
| 20260904040019 | 77 | 134 | 0.0 | 0.0 | 0.00 | 0.15 | 0.05 | 87 | 1007.4 |
| 20260904035518 | 77 | 121 | 0.0 | 0.0 | 0.00 | 0.15 | 0.05 | 87 | 1007.4 |
| 20260904035019 | 77 | 131 | 0.0 | 0.0 | 0.00 | 0.15 | 0.05 | 87 | 1007.4 |
| 20260904034518 | 77 | 115 | 0.0 | 0.0 | 0.00 | 0.15 | 0.05 | 87 | 1007.3 |
| 20260904034018 | 77 | 134 | 0.0 | 0.0 | 0.00 | 0.15 | 0.05 | 87 | 1007.3 |
| 20260904033518 | 77 | 138 | 0.0 | 0.0 | 0.00 | 0.15 | 0.05 | 86 | 1007.3 |
| 20260904033018 | 77 | 119 | 0.0 | 0.0 | 0.00 | 0.15 | 0.05 | 86 | 1007.3 |
| 20260904032517 | 77 | 123 | 0.0 | 0.0 | 0.00 | 0.15 | 0.05 | 86 | 1007.4 |
| 20260904032017 | 77 | 124 | 0.0 | 0.0 | 0.00 | 0.15 | 0.05 | 86 | 1007.4 |
| 20260904031517 | 77 | 121 | 0.0 | 0.0 | 0.00 | 0.15 | 0.05 | 86 | 1007.5 |
| 20260904031016 | 77 | 123 | 0.0 | 0.0 | 0.00 | 0.15 | 0.05 | 86 | 1007.6 |
| 20260904030616 | 77 | 130 | 0.0 | 0.0 | 0.00 | 0.15 | 0.05 | 85 | 1007.5 |
| 20260904030020 | 77 | 113 | 0.0 | 0.0 | 0.00 | 0.15 | 0.05 | 85 | 1007.5 |
| 20260904025516 | 77 | 116 | 0.0 | 0.0 | 0.00 | 0.15 | 0.05 | 85 | 1007.6 |
| 20260904025015 | 77 | 113 | 0.0 | 0.0 | 0.00 | 0.15 | 0.05 | 85 | 1007.5 |
| 20260904024516 | 77 | 121 | 0.0 | 0.0 | 0.00 | 0.15 | 0.05 | 85 | 1007.6 |
| 20260904024014 | 77 | 109 | 0.0 | 0.0 | 0.00 | 0.15 | 0.05 | 84 | 1007.6 |
| 20260904023514 | 77 | 111 | 0.0 | 0.0 | 0.00 | 0.15 | 0.05 | 84 | 1007.4 |
| 20260904023013 | 77 | 115 | 0.0 | 0.0 | 0.00 | 0.15 | 0.05 | 84 | 1007.4 |
| 20260904022514 | 77 | 111 | 0.0 | 0.0 | 0.00 | 0.15 | 0.05 | 84 | 1007.3 |
| 20260904022013 | 78 | 115 | 0.0 | 0.0 | 0.00 | 0.15 | 0.05 | 83 | 1007.4 |
| 20260904021522 | 78 | 113 | 0.0 | 0.0 | 0.00 | 0.15 | 0.05 | 83 | 1007.3 |
| 20260904021016 | 78 | 113 | 0.0 | 0.0 | 0.00 | 0.15 | 0.05 | 83 | 1007.3 |
| 20260904020614 | 78 | 127 | 0.0 | 0.0 | 0.00 | 0.15 | 0.05 | 82 | 1007.3 |
| 20260904020015 | 78 | 128 | 0.0 | 0.0 | 0.00 | 0.15 | 0.05 | 82 | 1007.3 |
| 20260904015515 | 78 | 126 | 0.0 | 0.0 | 0.00 | 0.15 | 0.05 | 81 | 1007.3 |
| 20260904015015 | 78 | 131 | 0.0 | 0.0 | 0.00 | 0.15 | 0.05 | 81 | 1007.2 |
| 20260904014513 | 79 | 120 | 0.0 | 0.0 | 0.00 | 0.15 | 0.05 | 80 | 1007.1 |
| 20260904014014 | 79 | 113 | 0.0 | 0.0 | 0.00 | 0.15 | 0.05 | 80 | 1007.0 |
| 20260904013513 | 79 | 136 | 0.0 | 0.0 | 0.00 | 0.15 | 0.05 | 79 | 1006.9 |
| 20260904013013 | 79 | 155 | 0.0 | 0.0 | 0.00 | 0.15 | 0.05 | 79 | 1006.9 |
| 20260904012513 | 79 | 155 | 0.0 | 0.0 | 0.00 | 0.15 | 0.05 | 78 | 1006.8 |
| 20260904012013 | 79 | 142 | 0.0 | 0.0 | 0.00 | 0.15 | 0.05 | 78 | 1006.8 |
| 20260904011513 | 80 | 122 | 0.0 | 0.0 | 0.00 | 0.15 | 0.05 | 77 | 1006.6 |
| 20260904011012 | 80 | 152 | 0.0 | 0.0 | 0.00 | 0.15 | 0.05 | 77 | 1006.6 |
| 20260904010612 | 80 | 150 | 0.0 | 0.0 | 0.00 | 0.15 | 0.05 | 76 | 1006.6 |
| 20260904010013 | 80 | 154 | 0.0 | 0.0 | 0.00 | 0.15 | 0.05 | 76 | 1006.5 |
| 20260904005512 | 80 | 155 | 0.0 | 0.0 | 0.00 | 0.15 | 0.05 | 75 | 1006.6 |
| 20260904005012 | 81 | 159 | 0.0 | 0.0 | 0.00 | 0.15 | 0.05 | 75 | 1006.6 |
| 20260904004512 | 81 | 152 | 0.0 | 0.0 | 0.00 | 0.15 | 0.05 | 74 | 1006.7 |
| 20260904004013 | 81 | 162 | 0.0 | 0.0 | 0.00 | 0.15 | 0.05 | 73 | 1006.7 |
| 20260904003518 | 81 | 151 | 0.0 | 0.0 | 0.00 | 0.15 | 0.05 | 73 | 1006.7 |
| 20260904003012 | 82 | 170 | 0.0 | 0.0 | 0.00 | 0.15 | 0.05 | 72 | 1006.7 |
| 20260904002515 | 82 | 126 | 0.0 | 0.0 | 0.00 | 0.15 | 0.05 | 71 | 1006.7 |
| 20260904002012 | 82 | 166 | 0.0 | 0.0 | 0.00 | 0.15 | 0.05 | 71 | 1006.7 |
| 20260904001512 | 82 | 159 | 0.0 | 0.0 | 0.00 | 0.15 | 0.05 | 70 | 1006.8 |
| 20260904001011 | 82 | 173 | 0.0 | 0.0 | 0.00 | 0.15 | 0.05 | 70 | 1006.9 |
| 20260904000612 | 83 | 144 | 0.0 | 0.0 | 0.00 | 0.15 | 0.05 | 69 | 1006.9 |
| 20260904000012 | 83 | 139 | 0.0 | 0.0 | 0.00 | 0.15 | 0.05 | 69 | 1006.9 |
| 20260903235512 | 83 | 150 | 0.0 | 0.0 | 0.00 | 0.15 | 0.05 | 69 | 1006.8 |
| 20260903235011 | 83 | 173 | 0.0 | 0.0 | 0.00 | 0.15 | 0.05 | 69 | 1006.8 |
| 20260903234522 | 83 | 185 | 0.0 | 0.0 | 0.00 | 0.15 | 0.05 | 69 | 1006.7 |
| 20260903234011 | 83 | 177 | 0.0 | 0.0 | 0.00 | 0.15 | 0.05 | 69 | 1006.6 |
| 20260903233511 | 83 | 174 | 0.0 | 0.0 | 0.00 | 0.15 | 0.05 | 69 | 1006.5 |
| 20260903233011 | 83 | 188 | 0.0 | 0.0 | 0.00 | 0.15 | 0.05 | 69 | 1006.5 |
| 20260903232510 | 84 | 138 | 0.0 | 0.0 | 0.00 | 0.15 | 0.05 | 68 | 1006.1 |
| 20260903232014 | 84 | 172 | 0.0 | 0.0 | 0.00 | 0.15 | 0.05 | 68 | 1006.3 |
| 20260903231511 | 84 | 132 | 0.0 | 0.0 | 0.00 | 0.15 | 0.05 | 67 | 1006.3 |
| 20260903231009 | 84 | 130 | 0.0 | 0.0 | 0.00 | 0.15 | 0.05 | 67 | 1006.1 |
| 20260903230610 | 84 | 167 | 0.0 | 0.0 | 0.00 | 0.15 | 0.05 | 67 | 1006.1 |
| 20260903230010 | 84 | 166 | 0.0 | 0.0 | 0.00 | 0.15 | 0.05 | 67 | 1006.2 |
| 20260903225510 | 84 | 168 | 0.0 | 0.0 | 0.00 | 0.15 | 0.05 | 68 | 1006.2 |
| 20260903225008 | 84 | 74 | 0.0 | 0.0 | 0.00 | 0.15 | 0.05 | 67 | 1006.1 |
| 20260903224521 | 84 | 121 | 0.0 | 0.0 | 0.00 | 0.15 | 0.05 | 68 | 1006.2 |
| 20260903224012 | 84 | 137 | 0.0 | 0.0 | 0.00 | 0.15 | 0.05 | 68 | 1006.2 |
| 20260903223508 | 83 | 110 | 0.0 | 0.0 | 0.00 | 0.15 | 0.05 | 68 | 1006.2 |
| 20260903223007 | 83 | 101 | 0.0 | 0.0 | 0.00 | 0.15 | 0.05 | 67 | 1006.3 |
| 20260903222510 | 83 | 360 | 0.0 | 0.0 | 0.00 | 0.15 | 0.05 | 67 | 1006.2 |
| 20260903222006 | 84 | 126 | 0.0 | 0.0 | 0.00 | 0.15 | 0.05 | 66 | 1006.4 |
| 20260903221506 | 84 | 180 | 0.0 | 0.0 | 0.00 | 0.15 | 0.05 | 66 | 1006.5 |
| 20260903221006 | 84 | 117 | 0.0 | 0.0 | 0.00 | 0.15 | 0.05 | 67 | 1006.5 |
| 20260903220605 | 84 | 114 | 0.0 | 0.0 | 0.00 | 0.15 | 0.05 | 65 | 1006.5 |
| 20260903220008 | 84 | 121 | 0.0 | 0.0 | 0.00 | 0.15 | 0.05 | 65 | 1006.5 |
| 20260903215507 | 84 | 122 | 0.0 | 0.0 | 0.00 | 0.15 | 0.05 | 65 | 1006.7 |
| 20260903215005 | 84 | 99 | 0.0 | 0.0 | 0.00 | 0.15 | 0.05 | 65 | 1006.6 |
| 20260903214505 | 84 | 111 | 0.0 | 0.0 | 0.00 | 0.15 | 0.05 | 64 | 1006.7 |
| 20260903214005 | 84 | 131 | 0.0 | 0.0 | 0.00 | 0.15 | 0.05 | 64 | 1006.7 |
| 20260903213506 | 84 | 112 | 0.0 | 0.0 | 0.00 | 0.15 | 0.05 | 64 | 1006.9 |
| 20260903213003 | 83 | 135 | 0.0 | 0.0 | 0.00 | 0.15 | 0.05 | 64 | 1007.1 |
| 20260903212503 | 83 | 150 | 0.0 | 0.0 | 0.00 | 0.15 | 0.05 | 65 | 1007.2 |
| 20260903212004 | 83 | 103 | 0.0 | 0.0 | 0.00 | 0.15 | 0.05 | 65 | 1007.3 |
| 20260903211503 | 83 | 130 | 0.0 | 0.0 | 0.00 | 0.15 | 0.05 | 65 | 1007.2 |
| 20260903211003 | 83 | 180 | 0.0 | 0.0 | 0.00 | 0.15 | 0.05 | 66 | 1007.3 |
| 20260903210606 | 84 | 111 | 0.0 | 0.0 | 0.00 | 0.15 | 0.05 | 66 | 1007.2 |
| 20260903210003 | 84 | 122 | 0.0 | 0.0 | 0.00 | 0.15 | 0.05 | 65 | 1007.2 |
| 20260903205504 | 84 | 123 | 0.0 | 0.0 | 0.00 | 0.15 | 0.05 | 64 | 1007.2 |
| 20260903205001 | 83 | 103 | 0.0 | 0.0 | 0.00 | 0.15 | 0.05 | 67 | 1007.1 |
| 20260903204501 | 83 | 151 | 0.0 | 0.0 | 0.00 | 0.15 | 0.05 | 68 | 1007.1 |
| 20260903204003 | 83 | 109 | 0.0 | 0.0 | 0.00 | 0.15 | 0.05 | 69 | 1007.0 |
| 20260903203503 | 83 | 144 | 0.0 | 0.0 | 0.00 | 0.15 | 0.05 | 70 | 1007.0 |
| 20260903203003 | 83 | 113 | 0.0 | 0.0 | 0.01 | 0.15 | 0.05 | 69 | 1007.0 |
| 20260903202600 | 83 | 126 | 0.0 | 0.0 | 0.01 | 0.15 | 0.05 | 71 | 1007.0 |
| 20260903202100 | 83 | 116 | 0.0 | 0.0 | 0.01 | 0.15 | 0.05 | 72 | 1006.8 |
| 20260903201558 | 82 | 121 | 0.0 | 0.0 | 0.01 | 0.15 | 0.05 | 72 | 1006.8 |
| 20260903201056 | 82 | 108 | 0.0 | 0.0 | 0.01 | 0.15 | 0.05 | 73 | 1006.9 |
| 20260903200556 | 82 | 60 | 0.0 | 0.0 | 0.01 | 0.15 | 0.05 | 74 | 1007.3 |
| 20260903200056 | 82 | 126 | 0.0 | 0.0 | 0.01 | 0.15 | 0.05 | 74 | 1007.3 |
| 20260903195554 | 82 | 126 | 0.0 | 0.0 | 0.01 | 0.15 | 0.05 | 73 | 1007.3 |
| 20260903195057 | 82 | 159 | 0.0 | 0.0 | 0.01 | 0.15 | 0.05 | 73 | 1007.7 |
| 20260903194553 | 82 | 126 | 0.0 | 0.0 | 0.01 | 0.15 | 0.05 | 75 | 1007.7 |
| 20260903194053 | 81 | 119 | 0.0 | 0.0 | 0.01 | 0.15 | 0.05 | 77 | 1007.7 |
| 20260903193552 | 80 | 118 | 0.0 | 0.0 | 0.01 | 0.15 | 0.05 | 80 | 1007.7 |
| 20260903193049 | 79 | 105 | 0.0 | 0.0 | 0.01 | 0.15 | 0.05 | 84 | 1007.6 |
| 20260903192547 | 77 | 134 | 0.0 | 0.0 | 0.01 | 0.14 | 0.04 | 86 | 1007.7 |
| 20260903192045 | 76 | 117 | 0.0 | 0.0 | 0.01 | 0.14 | 0.04 | 88 | 1007.7 |
| 20260903191551 | 75 | 103 | 0.0 | 0.0 | 0.01 | 0.14 | 0.04 | 89 | 1008.0 |
| 20260903191042 | 75 | 146 | 0.0 | 0.0 | 0.01 | 0.14 | 0.04 | 90 | 1007.8 |
| 20260903190541 | 74 | 119 | 0.0 | 0.0 | 0.01 | 0.14 | 0.04 | 90 | 1007.7 |
| 20260903190041 | 74 | 121 | 0.0 | 0.0 | 0.01 | 0.14 | 0.04 | 90 | 1007.7 |
| 20260903185542 | 74 | 124 | 0.0 | 0.0 | 0.01 | 0.14 | 0.04 | 90 | 1007.7 |
| 20260903185038 | 74 | 119 | 0.0 | 0.0 | 0.01 | 0.14 | 0.04 | 90 | 1007.8 |
| 20260903184543 | 73 | 112 | 0.0 | 0.0 | 0.01 | 0.14 | 0.04 | 89 | 1008.0 |
| 20260903184036 | 73 | 108 | 0.0 | 0.0 | 0.01 | 0.14 | 0.04 | 89 | 1008.0 |
| 20260903183534 | 73 | 117 | 0.0 | 0.0 | 0.02 | 0.14 | 0.04 | 89 | 1008.0 |
| 20260903183036 | 74 | 99 | 0.0 | 0.0 | 0.02 | 0.14 | 0.04 | 89 | 1008.0 |
| 20260903182533 | 74 | 135 | 0.0 | 0.0 | 0.01 | 0.13 | 0.03 | 89 | 1008.1 |
| 20260903182033 | 74 | 121 | 0.0 | 0.0 | 0.03 | 0.13 | 0.03 | 90 | 1008.1 |
| 20260903181528 | 73 | 114 | 0.0 | 0.0 | 0.03 | 0.13 | 0.03 | 91 | 1008.2 |
| 20260903181027 | 73 | 135 | 0.0 | 0.0 | 0.03 | 0.13 | 0.03 | 91 | 1008.2 |
| 20260903180526 | 72 | 59 | 0.0 | 0.0 | 0.03 | 0.13 | 0.03 | 91 | 1008.2 |
| 20260903180033 | 72 | 92 | 0.0 | 0.0 | 0.03 | 0.13 | 0.03 | 92 | 1008.2 |
| 20260903175525 | 72 | 80 | 0.0 | 0.0 | 0.03 | 0.13 | 0.03 | 91 | 1008.0 |
| 20260903175026 | 72 | 107 | 0.0 | 0.0 | 0.03 | 0.13 | 0.03 | 91 | 1008.0 |
| 20260903174525 | 72 | 126 | 0.0 | 0.0 | 0.03 | 0.13 | 0.03 | 91 | 1008.0 |
| 20260903174024 | 72 | 121 | 0.0 | 0.0 | 0.03 | 0.13 | 0.03 | 91 | 1008.1 |
| 20260903173521 | 72 | 82 | 0.0 | 0.0 | 0.03 | 0.13 | 0.03 | 91 | 1008.4 |
| 20260903173022 | 72 | 91 | 0.0 | 0.0 | 0.02 | 0.12 | 0.02 | 90 | 1008.5 |
| 20260903172524 | 72 | 71 | 0.0 | 0.0 | 0.02 | 0.12 | 0.02 | 90 | 1008.6 |
| 20260903172020 | 72 | 107 | 0.0 | 0.0 | 0.01 | 0.11 | 0.01 | 90 | 1008.8 |
| 20260903171518 | 72 | 123 | 0.0 | 0.0 | 0.00 | 0.10 | 0.00 | 90 | 1008.7 |
| 20260903171016 | 73 | 113 | 0.0 | 0.0 | 0.00 | 0.10 | 0.00 | 89 | 1009.2 |
| 20260903170516 | 73 | 142 | 0.0 | 0.0 | 0.00 | 0.10 | 0.00 | 89 | 1009.3 |
| 20260903170015 | 73 | 142 | 0.0 | 0.0 | 0.00 | 0.10 | 0.00 | 89 | 1009.3 |
| 20260903165515 | 73 | 123 | 0.0 | 0.0 | 0.00 | 0.10 | 0.00 | 89 | 1009.0 |